Time,TemperatureF,DewpointF,PressureIn,WindDirection,WindDirectionDegrees,WindSpeedMPH,WindSpeedGustMPH,Humidity,HourlyPrecipIn,Conditions,Clouds,dailyrainin,SoftwareType,DateUTC
2013-05-28 00:12:00,51.0,48.0,-100.00,East,80,4.0,7.0,91,0.00,,,-99.99,,2013-05-28 05:12:00,
2013-05-28 00:22:00,51.0,48.0,-100.00,East,80,4.0,7.0,91,0.00,,,-99.99,,2013-05-28 05:22:00,
2013-05-28 00:33:00,51.0,48.0,-100.00,East,80,4.0,7.0,91,0.00,,,-99.99,,2013-05-28 05:33:00,
2013-05-28 00:42:00,51.0,48.0,-100.00,East,80,4.0,7.0,91,0.00,,,-99.99,,2013-05-28 05:42:00,
2013-05-28 01:12:00,51.0,48.0,-100.00,NE,45,3.0,8.0,91,0.00,,,-99.99,,2013-05-28 06:12:00,
2013-05-28 01:21:00,51.0,48.0,-100.00,NE,45,3.0,8.0,91,0.00,,,-99.99,,2013-05-28 06:21:00,
2013-05-28 01:32:00,51.0,48.0,-100.00,NE,45,3.0,8.0,91,0.00,,,-99.99,,2013-05-28 06:32:00,
2013-05-28 01:42:00,51.0,48.0,-100.00,NE,45,3.0,8.0,91,0.00,,,-99.99,,2013-05-28 06:42:00,
2013-05-28 02:11:00,51.0,48.0,-100.00,ENE,60,6.0,9.0,91,0.00,,,-99.99,,2013-05-28 07:11:00,
2013-05-28 02:21:00,51.0,48.0,-100.00,ENE,60,6.0,9.0,91,0.00,,,-99.99,,2013-05-28 07:21:00,
2013-05-28 02:32:00,51.0,48.0,-100.00,ENE,60,6.0,9.0,91,0.00,,,-99.99,,2013-05-28 07:32:00,
2013-05-28 02:42:00,51.0,48.0,-100.00,ENE,60,6.0,9.0,91,0.00,,,-99.99,,2013-05-28 07:42:00,
2013-05-28 03:12:00,50.0,48.0,-100.00,ENE,65,6.0,11.0,91,0.00,,,-99.99,,2013-05-28 08:12:00,
2013-05-28 03:22:00,50.0,48.0,-100.00,ENE,65,6.0,11.0,91,0.00,,,-99.99,,2013-05-28 08:22:00,
2013-05-28 03:32:00,50.0,48.0,-100.00,ENE,65,6.0,11.0,91,0.00,,,-99.99,,2013-05-28 08:32:00,
2013-05-28 03:42:00,50.0,48.0,-100.00,ENE,65,6.0,11.0,91,0.00,,,-99.99,,2013-05-28 08:42:00,
2013-05-28 04:11:00,50.0,48.0,-100.00,ENE,60,7.0,12.0,91,0.00,,,-99.99,,2013-05-28 09:11:00,
2013-05-28 04:21:00,50.0,48.0,-100.00,ENE,60,7.0,12.0,91,0.00,,,-99.99,,2013-05-28 09:21:00,
2013-05-28 04:33:00,50.0,48.0,-100.00,ENE,60,7.0,12.0,91,0.00,,,-99.99,,2013-05-28 09:33:00,
2013-05-28 04:42:00,50.0,48.0,-100.00,ENE,60,7.0,12.0,91,0.00,,,-99.99,,2013-05-28 09:42:00,
2013-05-28 05:12:00,50.0,48.0,-100.00,ENE,65,7.0,15.0,91,0.00,,,-99.99,,2013-05-28 10:12:00,
2013-05-28 05:23:00,50.0,48.0,-100.00,ENE,65,7.0,15.0,91,0.00,,,-99.99,,2013-05-28 10:23:00,
2013-05-28 05:32:00,50.0,48.0,-100.00,ENE,65,7.0,15.0,91,0.00,,,-99.99,,2013-05-28 10:32:00,
2013-05-28 05:42:00,50.0,48.0,-100.00,ENE,65,7.0,15.0,91,0.00,,,-99.99,,2013-05-28 10:42:00,
2013-05-28 06:11:00,51.0,48.0,-100.00,NE,55,7.0,12.0,91,0.00,,,-99.99,,2013-05-28 11:11:00,
2013-05-28 06:22:00,51.0,48.0,-100.00,NE,55,7.0,12.0,91,0.00,,,-99.99,,2013-05-28 11:22:00,
2013-05-28 06:32:00,51.0,48.0,-100.00,NE,55,7.0,12.0,91,0.00,,,-99.99,,2013-05-28 11:32:00,
2013-05-28 06:42:00,51.0,48.0,-100.00,NE,55,7.0,12.0,91,0.00,,,-99.99,,2013-05-28 11:42:00,
2013-05-28 07:11:00,51.0,48.0,-100.00,ENE,65,2.0,4.0,91,0.00,,,-99.99,,2013-05-28 12:11:00,
2013-05-28 07:21:00,51.0,48.0,-100.00,ENE,65,2.0,4.0,91,0.00,,,-99.99,,2013-05-28 12:21:00,
2013-05-28 07:32:00,51.0,48.0,-100.00,ENE,65,2.0,4.0,91,0.00,,,-99.99,,2013-05-28 12:32:00,
2013-05-28 07:42:00,51.0,48.0,-100.00,ENE,65,2.0,4.0,91,0.00,,,-99.99,,2013-05-28 12:42:00,
2013-05-28 08:11:00,51.0,48.0,-100.00,ENE,60,7.0,11.0,91,0.00,,,-99.99,,2013-05-28 13:11:00,
2013-05-28 08:21:00,51.0,48.0,-100.00,ENE,60,7.0,11.0,91,0.00,,,-99.99,,2013-05-28 13:21:00,
2013-05-28 08:32:00,51.0,48.0,-100.00,ENE,60,7.0,11.0,91,0.00,,,-99.99,,2013-05-28 13:32:00,
2013-05-28 08:42:00,51.0,48.0,-100.00,ENE,60,7.0,11.0,91,0.00,,,-99.99,,2013-05-28 13:42:00,
2013-05-28 09:11:00,52.0,49.0,-100.00,NNE,25,1.0,4.0,91,0.08,,,-99.99,,2013-05-28 14:11:00,
2013-05-28 09:21:00,52.0,49.0,-100.00,NNE,25,1.0,4.0,91,0.08,,,-99.99,,2013-05-28 14:21:00,
2013-05-28 09:32:00,52.0,49.0,-100.00,NNE,25,1.0,4.0,91,0.08,,,-99.99,,2013-05-28 14:32:00,
2013-05-28 09:42:00,52.0,49.0,-100.00,NNE,25,1.0,4.0,91,0.08,,,-99.99,,2013-05-28 14:42:00,
2013-05-28 10:11:00,53.0,50.0,-100.00,NNE,30,4.0,7.0,91,0.00,,,-99.99,,2013-05-28 15:11:00,
2013-05-28 10:21:00,53.0,50.0,-100.00,NNE,30,4.0,7.0,91,0.00,,,-99.99,,2013-05-28 15:21:00,
2013-05-28 10:33:00,53.0,50.0,-100.00,NNE,30,4.0,7.0,91,0.00,,,-99.99,,2013-05-28 15:33:00,
2013-05-28 10:43:00,53.0,50.0,-100.00,NNE,30,4.0,7.0,91,0.00,,,-99.99,,2013-05-28 15:43:00,
2013-05-28 11:13:00,54.0,51.0,-100.00,NE,35,4.0,6.0,91,0.00,,,-99.99,,2013-05-28 16:13:00,
2013-05-28 11:22:00,54.0,51.0,-100.00,NE,35,4.0,6.0,91,0.00,,,-99.99,,2013-05-28 16:22:00,
2013-05-28 11:33:00,54.0,51.0,-100.00,NE,35,4.0,6.0,91,0.00,,,-99.99,,2013-05-28 16:33:00,
2013-05-28 11:42:00,54.0,51.0,-100.00,NE,35,4.0,6.0,91,0.00,,,-99.99,,2013-05-28 16:42:00,
2013-05-28 12:32:00,55.0,53.0,-100.00,NE,50,4.0,9.0,91,0.00,,,-99.99,,2013-05-28 17:32:00,
2013-05-28 12:42:00,55.0,53.0,-100.00,NE,50,4.0,9.0,91,0.00,,,-99.99,,2013-05-28 17:42:00,
2013-05-28 13:11:00,57.0,54.0,-100.00,NE,40,3.0,7.0,91,0.00,,,-99.99,,2013-05-28 18:11:00,
2013-05-28 13:21:00,57.0,54.0,-100.00,NE,40,3.0,7.0,91,0.00,,,-99.99,,2013-05-28 18:21:00,
2013-05-28 13:32:00,57.0,54.0,-100.00,NE,40,3.0,7.0,91,0.00,,,-99.99,,2013-05-28 18:32:00,
2013-05-28 13:42:00,57.0,54.0,-100.00,NE,40,3.0,7.0,91,0.00,,,-99.99,,2013-05-28 18:42:00,
2013-05-28 14:11:00,58.0,56.0,-100.00,East,95,4.0,6.0,91,0.00,,,-99.99,,2013-05-28 19:11:00,
2013-05-28 14:21:00,58.0,56.0,-100.00,East,95,4.0,6.0,91,0.00,,,-99.99,,2013-05-28 19:21:00,
2013-05-28 14:32:00,58.0,56.0,-100.00,East,95,4.0,6.0,91,0.00,,,-99.99,,2013-05-28 19:32:00,
2013-05-28 14:42:00,58.0,56.0,-100.00,East,95,4.0,6.0,91,0.00,,,-99.99,,2013-05-28 19:42:00,
2013-05-28 15:11:00,60.0,57.0,-100.00,NNE,25,5.0,7.0,90,0.00,,,-99.99,,2013-05-28 20:11:00,
2013-05-28 15:22:00,60.0,57.0,-100.00,NNE,25,5.0,7.0,90,0.00,,,-99.99,,2013-05-28 20:22:00,
2013-05-28 15:32:00,60.0,57.0,-100.00,NNE,25,5.0,7.0,90,0.00,,,-99.99,,2013-05-28 20:32:00,
2013-05-28 15:42:00,60.0,57.0,-100.00,NNE,25,5.0,7.0,90,0.00,,,-99.99,,2013-05-28 20:42:00,
2013-05-28 16:11:00,62.0,59.0,-100.00,East,90,3.0,7.0,90,0.00,,,-99.99,,2013-05-28 21:11:00,
2013-05-28 16:21:00,62.0,59.0,-100.00,East,90,3.0,7.0,90,0.00,,,-99.99,,2013-05-28 21:21:00,
2013-05-28 16:33:00,62.0,59.0,-100.00,East,90,3.0,7.0,90,0.00,,,-99.99,,2013-05-28 21:33:00,
2013-05-28 16:43:00,62.0,59.0,-100.00,East,90,3.0,7.0,90,0.00,,,-99.99,,2013-05-28 21:43:00,
2013-05-28 17:12:00,63.0,60.0,-100.00,ENE,65,1.0,4.0,88,0.00,,,-99.99,,2013-05-28 22:12:00,
2013-05-28 17:22:00,63.0,60.0,-100.00,ENE,65,1.0,4.0,88,0.00,,,-99.99,,2013-05-28 22:22:00,
2013-05-28 17:33:00,63.0,60.0,-100.00,ENE,65,1.0,4.0,88,0.00,,,-99.99,,2013-05-28 22:33:00,
2013-05-28 17:42:00,63.0,60.0,-100.00,ENE,65,1.0,4.0,88,0.00,,,-99.99,,2013-05-28 22:42:00,
2013-05-28 18:11:00,62.0,59.0,-100.00,North,10,6.0,8.0,89,0.00,,,-99.99,,2013-05-28 23:11:00,
2013-05-28 18:22:00,62.0,59.0,-100.00,North,10,6.0,8.0,89,0.00,,,-99.99,,2013-05-28 23:22:00,
2013-05-28 18:32:00,62.0,59.0,-100.00,North,10,6.0,8.0,89,0.00,,,-99.99,,2013-05-28 23:32:00,
2013-05-28 18:42:00,62.0,59.0,-100.00,North,10,6.0,8.0,89,0.00,,,-99.99,,2013-05-28 23:42:00,
2013-05-28 19:11:00,62.0,58.0,-100.00,North,10,6.0,7.0,89,0.00,,,-99.99,,2013-05-29 00:11:00,
2013-05-28 19:21:00,62.0,58.0,-100.00,North,10,6.0,7.0,89,0.00,,,-99.99,,2013-05-29 00:21:00,
2013-05-28 19:32:00,62.0,58.0,-100.00,North,10,6.0,7.0,89,0.00,,,-99.99,,2013-05-29 00:32:00,
2013-05-28 19:41:00,62.0,58.0,-100.00,North,10,6.0,7.0,89,0.00,,,-99.99,,2013-05-29 00:41:00,
2013-05-28 20:11:00,61.0,58.0,-100.00,NE,35,2.0,7.0,90,0.00,,,-99.99,,2013-05-29 01:11:00,
2013-05-28 20:22:00,61.0,58.0,-100.00,NE,35,2.0,7.0,90,0.00,,,-99.99,,2013-05-29 01:22:00,
2013-05-28 20:32:00,61.0,58.0,-100.00,NE,35,2.0,7.0,90,0.00,,,-99.99,,2013-05-29 01:32:00,
2013-05-28 20:42:00,61.0,58.0,-100.00,NE,35,2.0,7.0,90,0.00,,,-99.99,,2013-05-29 01:42:00,
2013-05-28 21:12:00,60.0,57.0,-100.00,East,85,1.0,4.0,90,0.00,,,-99.99,,2013-05-29 02:12:00,
2013-05-28 21:21:00,60.0,57.0,-100.00,East,85,1.0,4.0,90,0.00,,,-99.99,,2013-05-29 02:21:00,
2013-05-28 21:32:00,60.0,57.0,-100.00,East,85,1.0,4.0,90,0.00,,,-99.99,,2013-05-29 02:32:00,
2013-05-28 21:42:00,60.0,57.0,-100.00,East,85,1.0,4.0,90,0.00,,,-99.99,,2013-05-29 02:42:00,
2013-05-28 22:12:00,60.0,57.0,-100.00,East,80,1.0,6.0,90,0.00,,,-99.99,,2013-05-29 03:12:00,
2013-05-28 22:21:00,60.0,57.0,-100.00,East,80,1.0,6.0,90,0.00,,,-99.99,,2013-05-29 03:21:00,
2013-05-28 22:33:00,60.0,57.0,-100.00,East,80,1.0,6.0,90,0.00,,,-99.99,,2013-05-29 03:33:00,
2013-05-28 22:43:00,60.0,57.0,-100.00,East,80,1.0,6.0,90,0.00,,,-99.99,,2013-05-29 03:43:00,
2013-05-28 23:13:00,60.0,57.0,-100.00,NNW,335,1.0,2.0,90,0.00,,,-99.99,,2013-05-29 04:13:00,
2013-05-28 23:23:00,60.0,57.0,-100.00,NNW,335,1.0,2.0,90,0.00,,,-99.99,,2013-05-29 04:23:00,
2013-05-28 23:33:00,60.0,57.0,-100.00,NNW,335,1.0,2.0,90,0.00,,,-99.99,,2013-05-29 04:33:00,
2013-05-28 23:42:00,60.0,57.0,-100.00,NNW,335,1.0,2.0,90,0.00,,,-99.99,,2013-05-29 04:42:00,